Weather in Duong Dong

Vietnam     10°13′24″N   103°57′55″E
temp.,
°C
wind,
m/s
gust,
m/s
humid.,
%
clouds,
%
prec.,
mm/h
press.,
hPa
HPBL,
m
4 august, wed
wed401:00+27w71283100 1.1 1009940
04:00+27w61184100 0.6 1008925
07:00+27w6118392 1.5 1010975
10:00+29wsw61080100 1.4 10101051
13:00+29wsw7107971 2.9 10091077
16:00+28w71182100 1.4 10071013
19:00+27w61186100 2.1 1009867
22:00+27w61285100 0.4 1010827
5 august, thu
thu501:00+27w71383100 0.7 1008977
04:00+27w71286100 1.5 1008950
07:00+27w61184100 2.2 1009942
10:00+28w71283100 1.3 10101049
13:00+29w71180100 2.5 10081104
16:00+28w71183100 1.0 10071043
19:00+27w61085100 2.3 1009749
22:00+26w4987100 2.1 1011544
6 august, fri
fri601:00+26w51085100 3.9 1009592
04:00+26w51086100 1.0 1008556
07:00+27w51085100 1.8 1009689
10:00+29w6976100 1.7 1010990
13:00+29w697159 3.4 10081052
16:00+28wsw597495 1.4 1007881
19:00+26wsw4885100 3.6 1008506
22:00+26wsw4884100 1.4 1010528
7 august, sat
sat701:00+26w5985100 3.0 1009506
04:00+26w61187100 3.3 1009602
07:00+26w4886100 6.9 1010495
10:00+28wsw5777100 1.8 1011751
13:00+29wsw587076 2.4 1010983
16:00+28w697793 0.9 1008909
19:00+26w4884100 2.1 1009462
22:00+26w4884100 0.1 1011532
8 august, sun
sun801:00+27w5982100 0.1 1010588
04:00+26w4887100 1.3 1009439
07:00+27wnw588349 1.7 1010626
10:00+29w5776100 0.5 1011887
13:00+29w687278 1.1 10101033
16:00+29w687717 0.4 1008959
19:00+27w588680 1.3 1009572
22:00+27w4786100 0.2 1011472